Weather History for KFFO - November, 2011

Change the Weather History Date:

Wednesday, November 16, 2011

  Actual Average Record
Temperature  
Mean Temperature 46 °F -  
Max Temperature 55 °F 49 °F 68 °F (2001)
Min Temperature 36 °F 32 °F 23 °F (1997)
Degree Days  
Heating Degree Days 20    
Moisture  
Dew Point 46 °F    
Average Humidity 86    
Maximum Humidity 100    
Minimum Humidity 48    
Precipitation  
Precipitation 0.18 in - - ()
Sea Level Pressure  
Sea Level Pressure 29.92 in    
Wind  
Wind Speed 6 mph (NW)    
Max Wind Speed 12 mph    
Max Gust Speed 18 mph    
Visibility 7 miles    
Events Rain    
Averages and records for this station are not official NWS values.
T = Trace of Precipitation, MM = Missing Value Source: NWS Daily Summary

Daily Weather History Graph

Daily Weather History Graph

Search for Another Location

Airport or City:

Trip Planner

Search our weather history database for the weather conditions in past years. The results will help you decide how hot, cold, wet, or windy it might be!

Date:

Astronomy

Nov. 16, 2011 Rise Set
Actual Time 7:21 AM EST 5:19 PM EST
Civil Twilight 6:52 AM EST 5:48 PM EST
Nautical Twilight 6:20 AM EST 6:21 PM EST
Astronomical Twilight 5:48 AM EST 6:53 PM EST
Moon 10:32 PM EST (11/16) 11:57 AM EST (11/16)
Length of Visible Light 10h 55m
Length of Day
9h 57m
Waning Gibbous, 70% of the Moon is Illuminated
Nov 16
Waning Gibbous
Nov 18
Last Quarter
Nov 25
New
Dec 2
First Quarter
Dec 10
Full

Hourly Weather History & Observations

Time (EST) Temp. Windchill Dew Point Humidity Pressure Visibility Wind Dir Wind Speed Gust Speed Precip Events Conditions
12:13 AM 55.4 °F - 53.6 °F 94% 29.86 in 10.0 mi SW 5.8 mph - N/A   Overcast
12:42 AM 55.4 °F - 53.6 °F 94% 29.87 in 10.0 mi SW 5.8 mph - N/A Rain Light Rain
12:51 AM 55.4 °F - 53.6 °F 94% 29.86 in 10.0 mi WSW 8.1 mph - N/A   Overcast
12:55 AM 55.2 °F - 54.1 °F 96% 29.86 in 10.0 mi WSW 6.9 mph - 0.00 in   Overcast
1:55 AM 54.7 °F - 54.1 °F 98% 29.85 in 7.0 mi SW 4.6 mph - 0.00 in Rain Light Rain
2:13 AM 53.6 °F - 53.6 °F 100% 29.85 in 8.0 mi SW 4.6 mph - N/A   Overcast
2:55 AM 53.6 °F - 53.2 °F 99% 29.84 in 10.0 mi Calm Calm - 0.00 in   Overcast
3:55 AM 53.8 °F - 53.6 °F 99% 29.84 in 8.0 mi WSW 4.6 mph - N/A   Mostly Cloudy
4:13 AM 53.6 °F - 53.6 °F 100% 29.83 in 5.0 mi Calm Calm - N/A   Overcast
4:55 AM 53.4 °F - 53.2 °F 99% 29.84 in 5.0 mi WNW 3.5 mph - N/A   Overcast
5:05 AM 53.6 °F - 53.6 °F 100% 29.85 in 6.0 mi WNW 3.5 mph - N/A Rain Light Rain
5:55 AM 53.8 °F - 53.4 °F 99% 29.85 in 7.0 mi Calm Calm - 0.03 in Rain Light Rain
6:22 AM 53.6 °F - 51.8 °F 94% 29.86 in 6.0 mi SW 4.6 mph - N/A   Light Drizzle
6:55 AM 52.5 °F - 52.2 °F 99% 29.86 in 4.0 mi West 3.5 mph - 0.03 in Rain Light Rain
7:09 AM 53.6 °F - 53.6 °F 100% 29.87 in 4.0 mi Calm Calm - N/A Rain Light Rain
7:41 AM 53.6 °F - 53.6 °F 100% 29.88 in 1.8 mi Calm Calm - N/A Rain Rain
7:55 AM 53.4 °F - 53.1 °F 99% 29.88 in 2.0 mi Calm Calm - 0.10 in Rain Light Rain
8:05 AM 53.6 °F - 53.6 °F 100% 29.89 in 3.0 mi WNW 4.6 mph - N/A Rain Light Rain
8:13 AM 53.6 °F - 53.6 °F 100% 29.88 in 5.0 mi Calm Calm - N/A Rain Light Rain
8:26 AM 53.6 °F - 53.6 °F 100% 29.89 in 5.0 mi NNW 3.5 mph - N/A Rain Light Rain
8:40 AM 53.6 °F - 53.6 °F 100% 29.89 in 6.0 mi NNW 5.8 mph - N/A Rain Light Rain
8:48 AM 53.6 °F - 53.6 °F 100% 29.89 in 5.0 mi NNW 6.9 mph - N/A Rain Light Rain
8:55 AM 53.6 °F - 53.2 °F 99% 29.89 in 5.0 mi North 8.1 mph - 0.02 in Rain Light Rain
9:30 AM 51.8 °F - 51.8 °F 100% 29.88 in 3.0 mi North 10.4 mph - N/A   Overcast
9:38 AM 51.8 °F - 51.8 °F 100% 29.89 in 3.0 mi NNW 8.1 mph - N/A   Light Drizzle
9:46 AM 51.8 °F - 50.0 °F 94% 29.88 in 3.0 mi NNW 8.1 mph - N/A   Light Drizzle
9:55 AM 51.6 °F - 50.2 °F 95% 29.89 in 3.0 mi NNW 5.8 mph - 0.00 in   Light Drizzle
10:07 AM 51.8 °F - 50.0 °F 94% 29.89 in 5.0 mi North 6.9 mph - N/A   Light Drizzle
10:09 AM 51.8 °F - 50.0 °F 94% 29.89 in 5.0 mi North 6.9 mph - N/A   Overcast
10:55 AM 51.1 °F - 47.5 °F 87% 29.92 in 10.0 mi NW 11.5 mph - 0.00 in   Overcast
11:19 AM 50.0 °F - 44.6 °F 82% 29.90 in 10.0 mi NNW 8.1 mph - N/A   Overcast
11:55 AM 50.2 °F - 43.0 °F 76% 29.92 in 10.0 mi NNW 9.2 mph - N/A   Overcast
12:55 PM 50.0 °F - 40.5 °F 70% 29.91 in 10.0 mi North 8.1 mph - N/A   Overcast
1:55 PM 48.9 °F - 40.1 °F 72% 29.92 in 10.0 mi NW 9.2 mph - N/A   Overcast
2:55 PM 48.2 °F - 36.0 °F 63% 29.96 in 10.0 mi NNW 9.2 mph - N/A   Mostly Cloudy
3:55 PM 48.6 °F - 32.4 °F 54% 29.96 in 10.0 mi NNW 10.4 mph - N/A   Scattered Clouds
4:55 PM 47.1 °F - 29.8 °F 51% 29.99 in 10.0 mi NW 9.2 mph - N/A   Partly Cloudy
5:55 PM 43.5 °F 40.1 °F 29.7 °F 58% 30.02 in 10.0 mi NW 5.8 mph - N/A   Partly Cloudy
6:31 PM 42.8 °F 38.6 °F 26.6 °F 53% 30.02 in 10.0 mi NW 6.9 mph - N/A   Partly Cloudy
6:55 PM 42.4 °F 38.1 °F 27.1 °F 55% 30.06 in 10.0 mi NW 6.9 mph - N/A   Partly Cloudy
7:55 PM 41.9 °F 35.4 °F 23.4 °F 48% 30.07 in 10.0 mi NW 11.5 mph 18.4 mph N/A   Mostly Cloudy
8:55 PM 39.2 °F 33.0 °F 25.3 °F 58% 30.09 in 10.0 mi NNW 9.2 mph - N/A   Partly Cloudy
9:55 PM 37.6 °F 31.6 °F 27.0 °F 66% 30.11 in 10.0 mi NW 8.1 mph - N/A   Partly Cloudy
10:55 PM 36.0 °F 29.0 °F 27.5 °F 71% 30.12 in 10.0 mi NW 9.2 mph - N/A   Scattered Clouds
11:55 PM 36.0 °F 29.0 °F 26.6 °F 69% 30.11 in 10.0 mi NNW 9.2 mph - N/A   Mostly Cloudy